GAC648J LFRH-LSZH

Flight info

Callsign GAC648J
Flight time 2h 14m
Altitude 37000
Route BAGAD DCT KORER UN482 ANG/N0333F360 UL976 OBATO UM163 TABOV/N0334F370 UN491 POGZI/N0329F380 DCT ARSIL/N0334F370 DCT LUVAL DCT BEGAR N491 TRA
Aircraft C510/L-SDFGRWY/LB1

Departure

Time 2026-04-18 06:57
Airport Lorient South Brittany (Bretagne Sud) Airport (LFRH)

Arrival

Time 2026-04-18 09:12
Airport Zürich Airport (LSZH)
Time Latitude Longitude Altitude Speed Heading
2026-04-18 06:51 47.75456 -3.43736 149 ft 0 kts 187°
2026-04-18 06:52 47.75454 -3.43737 149 ft 0 kts 217°
2026-04-18 06:52 47.75452 -3.43743 149 ft 1 kts 265°
2026-04-18 06:53 47.75456 -3.43758 149 ft 0 kts 324°
2026-04-18 06:54 47.75484 -3.43787 150 ft 15 kts 324°
2026-04-18 06:54 47.75602 -3.43771 150 ft 26 kts 41°
2026-04-18 06:54 47.75622 -3.43747 148 ft 29 kts 38°
2026-04-18 06:54 47.75689 -3.43662 142 ft 40 kts 41°
2026-04-18 06:55 47.75868 -3.43431 146 ft 28 kts 36°
2026-04-18 06:55 47.76019 -3.43241 155 ft 17 kts 34°
2026-04-18 06:55 47.76084 -3.43162 158 ft 11 kts 45°
2026-04-18 06:55 47.76129 -3.43095 161 ft 7 kts 42°
2026-04-18 06:56 47.76195 -3.43075 164 ft 15 kts 340°
2026-04-18 06:56 47.76245 -3.43129 167 ft 7 kts 262°
2026-04-18 06:56 47.76244 -3.43141 167 ft 0 kts 253°
2026-04-18 06:56 47.76228 -3.43200 166 ft 31 kts 252°
2026-04-18 06:57 47.76087 -3.43845 166 ft 96 kts 252°
2026-04-18 06:57 47.75594 -3.46035 961 ft 129 kts 255°
2026-04-18 06:57 47.75265 -3.47357 1599 ft 141 kts 252°
2026-04-18 06:58 47.74888 -3.48726 2351 ft 143 kts 251°
2026-04-18 06:58 47.74556 -3.50048 3325 ft 127 kts 254°
2026-04-18 06:58 47.74280 -3.51315 4014 ft 134 kts 256°
2026-04-18 06:58 47.74010 -3.52718 4520 ft 146 kts 256°
2026-04-18 06:59 47.73969 -3.54190 5131 ft 149 kts 288°
2026-04-18 06:59 47.74603 -3.55423 5781 ft 150 kts 320°
2026-04-18 06:59 47.75580 -3.55914 6489 ft 158 kts 354°
2026-04-18 06:59 47.76689 -3.55378 6917 ft 178 kts 33°
2026-04-18 07:00 47.77366 -3.53843 7523 ft 184 kts 76°
2026-04-18 07:00 47.77281 -3.51956 8089 ft 186 kts 105°
2026-04-18 07:00 47.76989 -3.50072 8665 ft 188 kts 102°
2026-04-18 07:00 47.76767 -3.48138 9226 ft 191 kts 101°
2026-04-18 07:01 47.76544 -3.46179 9778 ft 193 kts 101°
2026-04-18 07:01 47.76334 -3.44196 10324 ft 195 kts 101°
2026-04-18 07:01 47.76075 -3.42208 10823 ft 196 kts 103°
2026-04-18 07:01 47.75849 -3.40190 11247 ft 204 kts 102°
2026-04-18 07:02 47.75590 -3.37973 11264 ft 230 kts 102°
2026-04-18 07:02 47.75298 -3.35532 11271 ft 248 kts 102°
2026-04-18 07:02 47.74994 -3.32978 11349 ft 256 kts 102°
2026-04-18 07:02 47.74683 -3.30376 11581 ft 256 kts 102°
2026-04-18 07:03 47.74369 -3.27762 11773 ft 258 kts 102°
2026-04-18 07:03 47.74050 -3.25132 11972 ft 259 kts 102°
2026-04-18 07:03 47.73733 -3.22493 12171 ft 260 kts 102°
2026-04-18 07:03 47.73411 -3.19840 12368 ft 261 kts 103°
2026-04-18 07:04 47.73089 -3.17176 12548 ft 263 kts 103°
2026-04-18 07:04 47.72762 -3.14495 12737 ft 264 kts 103°
2026-04-18 07:04 47.72435 -3.11803 12926 ft 266 kts 103°
2026-04-18 07:04 47.71985 -3.09158 13084 ft 263 kts 118°
2026-04-18 07:05 47.70868 -3.07119 13262 ft 251 kts 149°
2026-04-18 07:05 47.69398 -3.05747 13450 ft 249 kts 155°
2026-04-18 07:05 47.67936 -3.04340 13635 ft 251 kts 153°
2026-04-18 07:05 47.66482 -3.02885 13827 ft 252 kts 153°
2026-04-18 07:06 47.65023 -3.01439 14020 ft 253 kts 153°
2026-04-18 07:06 47.63556 -2.99988 14185 ft 254 kts 153°
2026-04-18 07:06 47.62121 -2.98443 14325 ft 260 kts 144°
2026-04-18 07:06 47.60966 -2.96335 14478 ft 268 kts 128°
2026-04-18 07:07 47.60135 -2.93836 14619 ft 272 kts 118°
2026-04-18 07:07 47.59363 -2.91280 14763 ft 274 kts 116°
2026-04-18 07:07 47.58986 -2.88487 14909 ft 280 kts 96°
2026-04-18 07:07 47.59118 -2.85603 15048 ft 283 kts 79°
2026-04-18 07:08 47.59750 -2.82843 15184 ft 284 kts 66°
2026-04-18 07:08 47.60487 -2.80126 15314 ft 285 kts 68°
2026-04-18 07:08 47.61210 -2.77389 15451 ft 285 kts 68°
2026-04-18 07:08 47.61949 -2.74654 15600 ft 286 kts 67°
2026-04-18 07:09 47.62687 -2.71909 15731 ft 287 kts 67°
2026-04-18 07:09 47.63424 -2.69155 15876 ft 288 kts 68°
2026-04-18 07:09 47.64162 -2.66389 16025 ft 289 kts 68°
2026-04-18 07:09 47.64901 -2.63617 16176 ft 289 kts 68°
2026-04-18 07:10 47.65641 -2.60845 16326 ft 290 kts 68°
2026-04-18 07:10 47.66385 -2.58047 16487 ft 291 kts 68°
2026-04-18 07:10 47.67130 -2.55250 16631 ft 292 kts 68°
2026-04-18 07:10 47.67872 -2.52444 16789 ft 293 kts 68°
2026-04-18 07:11 47.68304 -2.49495 16906 ft 294 kts 88°
2026-04-18 07:11 47.68212 -2.46482 17055 ft 292 kts 101°
2026-04-18 07:11 47.67948 -2.43495 17205 ft 292 kts 100°
2026-04-18 07:11 47.67710 -2.40493 17365 ft 293 kts 100°
2026-04-18 07:12 47.67458 -2.37486 17517 ft 294 kts 100°
2026-04-18 07:12 47.67201 -2.34470 17674 ft 295 kts 100°
2026-04-18 07:12 47.66952 -2.31483 17826 ft 296 kts 100°
2026-04-18 07:12 47.66695 -2.28450 17994 ft 297 kts 100°
2026-04-18 07:13 47.66439 -2.25405 18159 ft 298 kts 100°
2026-04-18 07:13 47.66180 -2.22354 18324 ft 299 kts 100°
2026-04-18 07:13 47.65919 -2.19288 18493 ft 299 kts 100°
2026-04-18 07:13 47.65658 -2.16223 18653 ft 300 kts 100°
2026-04-18 07:14 47.65395 -2.13145 18807 ft 301 kts 100°
2026-04-18 07:14 47.65129 -2.10069 18957 ft 301 kts 100°
2026-04-18 07:14 47.64864 -2.06974 19278 ft 303 kts 100°
2026-04-18 07:14 47.64596 -2.03876 19639 ft 303 kts 100°
2026-04-18 07:15 47.64326 -2.00767 19983 ft 305 kts 101°
2026-04-18 07:15 47.64054 -1.97644 20347 ft 306 kts 101°
2026-04-18 07:15 47.63780 -1.94506 20697 ft 307 kts 101°
2026-04-18 07:15 47.63504 -1.91356 21062 ft 309 kts 101°
2026-04-18 07:16 47.63227 -1.88195 21426 ft 310 kts 101°
2026-04-18 07:16 47.62947 -1.85017 21794 ft 312 kts 101°
2026-04-18 07:16 47.62664 -1.81820 22171 ft 313 kts 101°
2026-04-18 07:16 47.62379 -1.78606 22555 ft 315 kts 101°
2026-04-18 07:17 47.62093 -1.75384 22942 ft 317 kts 101°
2026-04-18 07:17 47.61802 -1.72141 23331 ft 318 kts 101°
2026-04-18 07:17 47.61511 -1.68879 23720 ft 320 kts 101°
2026-04-18 07:17 47.61216 -1.65600 24047 ft 322 kts 101°
2026-04-18 07:18 47.60918 -1.62304 24331 ft 324 kts 101°
2026-04-18 07:18 47.60619 -1.58989 24620 ft 325 kts 101°
2026-04-18 07:18 47.60318 -1.55666 24890 ft 327 kts 101°
2026-04-18 07:18 47.60012 -1.52318 25157 ft 328 kts 102°
2026-04-18 07:19 47.59705 -1.48956 25405 ft 330 kts 101°
2026-04-18 07:19 47.59396 -1.45584 25646 ft 331 kts 102°
2026-04-18 07:19 47.59190 -1.43340 25800 ft 332 kts 102°
2026-04-18 07:19 47.58878 -1.39945 26018 ft 333 kts 102°
2026-04-18 07:20 47.58561 -1.36535 26224 ft 335 kts 102°
2026-04-18 07:20 47.58245 -1.33113 26420 ft 336 kts 102°
2026-04-18 07:20 47.57925 -1.29683 26609 ft 337 kts 102°
2026-04-18 07:20 47.57604 -1.26237 26790 ft 338 kts 102°
2026-04-18 07:21 47.57278 -1.22779 26963 ft 339 kts 102°
2026-04-18 07:21 47.56953 -1.19312 27134 ft 340 kts 102°
2026-04-18 07:21 47.56625 -1.15841 27294 ft 341 kts 102°
2026-04-18 07:21 47.56295 -1.12345 27456 ft 342 kts 102°
2026-04-18 07:22 47.55968 -1.08901 27605 ft 343 kts 102°
2026-04-18 07:22 47.55629 -1.05351 27757 ft 344 kts 102°
2026-04-18 07:22 47.55294 -1.01836 27905 ft 345 kts 102°
2026-04-18 07:22 47.54955 -0.98315 28034 ft 346 kts 102°
2026-04-18 07:23 47.54621 -0.94830 28171 ft 347 kts 102°
2026-04-18 07:23 47.54544 -0.91194 28258 ft 353 kts 86°
2026-04-18 07:23 47.55014 -0.87631 28387 ft 354 kts 73°
2026-04-18 07:23 47.55978 -0.84327 28510 ft 354 kts 59°
2026-04-18 07:24 47.57408 -0.81382 28630 ft 351 kts 45°
2026-04-18 07:24 47.59206 -0.78978 28746 ft 347 kts 32°
2026-04-18 07:24 47.63063 -0.74646 28957 ft 349 kts 32°
2026-04-18 07:25 47.64994 -0.72468 29069 ft 349 kts 32°
2026-04-18 07:25 47.66933 -0.70297 29177 ft 350 kts 32°
2026-04-18 07:25 47.68874 -0.68107 29286 ft 351 kts 32°
2026-04-18 07:25 47.70816 -0.65911 29391 ft 352 kts 32°
2026-04-18 07:26 47.72747 -0.63726 29493 ft 352 kts 32°
2026-04-18 07:26 47.74718 -0.61498 29589 ft 353 kts 32°
2026-04-18 07:26 47.76676 -0.59279 29693 ft 354 kts 32°
2026-04-18 07:26 47.78634 -0.57059 29794 ft 354 kts 32°
2026-04-18 07:27 47.82565 -0.52596 29973 ft 356 kts 32°
2026-04-18 07:27 47.86509 -0.48108 30140 ft 357 kts 32°
2026-04-18 07:28 47.90462 -0.43602 30306 ft 359 kts 32°
2026-04-18 07:28 47.94430 -0.39066 30686 ft 350 kts 32°
2026-04-18 07:29 47.96339 -0.36874 30945 ft 346 kts 32°
2026-04-18 07:29 47.98235 -0.34716 31026 ft 348 kts 32°
2026-04-18 07:29 48.00160 -0.32512 31141 ft 349 kts 32°
2026-04-18 07:29 48.02087 -0.30299 31202 ft 351 kts 32°
2026-04-18 07:30 48.05914 -0.25601 31195 ft 364 kts 44°
2026-04-18 07:30 48.07429 -0.22525 31197 ft 371 kts 57°
2026-04-18 07:30 48.08569 -0.19047 31197 ft 373 kts 64°
2026-04-18 07:31 48.10804 -0.11985 31202 ft 378 kts 63°
2026-04-18 07:31 48.13035 -0.04834 31203 ft 381 kts 64°
2026-04-18 07:32 48.15287 0.02359 31206 ft 372 kts 64°
2026-04-18 07:32 48.16320 0.05676 31199 ft 333 kts 64°
2026-04-18 07:32 48.17261 0.08700 31197 ft 308 kts 63°
2026-04-18 07:33 48.19094 0.14572 31199 ft 321 kts 64°
2026-04-18 07:33 48.21029 0.20811 31198 ft 338 kts 64°
2026-04-18 07:34 48.23042 0.27310 31196 ft 349 kts 64°
2026-04-18 07:34 48.25108 0.34004 31201 ft 358 kts 64°
2026-04-18 07:35 48.27218 0.40852 31203 ft 365 kts 64°
2026-04-18 07:35 48.29360 0.47829 31209 ft 371 kts 64°
2026-04-18 07:36 48.31529 0.54914 31209 ft 376 kts 64°
2026-04-18 07:36 48.33720 0.62088 31208 ft 380 kts 64°
2026-04-18 07:37 48.35928 0.69341 31207 ft 383 kts 64°
2026-04-18 07:37 48.38148 0.76654 31202 ft 385 kts 64°
2026-04-18 07:38 48.40376 0.84015 31204 ft 387 kts 64°
2026-04-18 07:38 48.42609 0.91415 31204 ft 389 kts 64°
2026-04-18 07:39 48.44846 0.98853 31210 ft 390 kts 64°
2026-04-18 07:39 48.47084 1.06312 31205 ft 391 kts 64°
2026-04-18 07:40 48.49321 1.13793 31204 ft 392 kts 64°
2026-04-18 07:40 48.51541 1.21241 31208 ft 392 kts 64°
2026-04-18 07:41 48.53776 1.28760 31209 ft 393 kts 64°
2026-04-18 07:41 48.56006 1.36285 31205 ft 393 kts 65°
2026-04-18 07:42 48.58230 1.43815 31207 ft 393 kts 65°
2026-04-18 07:42 48.60450 1.51355 31201 ft 393 kts 65°
2026-04-18 07:43 48.62664 1.58904 31202 ft 393 kts 65°
2026-04-18 07:43 48.63498 1.62824 31190 ft 392 kts 79°
2026-04-18 07:43 48.63802 1.66906 31185 ft 390 kts 91°
2026-04-18 07:44 48.63585 1.70973 31185 ft 386 kts 104°
2026-04-18 07:44 48.63032 1.74930 31190 ft 385 kts 106°
2026-04-18 07:44 48.61954 1.82870 31191 ft 385 kts 106°
2026-04-18 07:45 48.60847 1.90776 31192 ft 384 kts 106°
2026-04-18 07:45 48.59750 1.98676 31196 ft 384 kts 106°
2026-04-18 07:46 48.58642 2.06572 31196 ft 384 kts 106°
2026-04-18 07:46 48.57532 2.14460 31196 ft 384 kts 106°
2026-04-18 07:47 48.56864 2.21874 31202 ft 387 kts 91°
2026-04-18 07:47 48.56895 2.29936 31203 ft 386 kts 93°
2026-04-18 07:48 48.56912 2.38047 31204 ft 387 kts 92°
2026-04-18 07:48 48.56924 2.46167 31205 ft 387 kts 92°
2026-04-18 07:49 48.56931 2.54284 31203 ft 387 kts 92°
2026-04-18 07:49 48.56932 2.62407 31203 ft 387 kts 92°
2026-04-18 07:50 48.56927 2.70541 31205 ft 387 kts 92°
2026-04-18 07:50 48.56916 2.78660 31205 ft 387 kts 92°
2026-04-18 07:51 48.56900 2.86776 31206 ft 386 kts 92°
2026-04-18 07:51 48.56878 2.94888 31204 ft 386 kts 92°
2026-04-18 07:52 48.56850 3.03010 31205 ft 386 kts 92°
2026-04-18 07:52 48.56816 3.11112 31206 ft 386 kts 93°
2026-04-18 07:53 48.56778 3.19204 31204 ft 386 kts 93°
2026-04-18 07:53 48.56733 3.27301 31205 ft 385 kts 93°
2026-04-18 07:54 48.56683 3.35340 31204 ft 385 kts 93°
2026-04-18 07:54 48.56627 3.43422 31203 ft 385 kts 93°
2026-04-18 07:55 48.56566 3.51508 31201 ft 385 kts 93°
2026-04-18 07:55 48.56500 3.59584 31205 ft 384 kts 93°
2026-04-18 07:56 48.56426 3.67658 31203 ft 384 kts 93°
2026-04-18 07:56 48.56347 3.75722 31202 ft 384 kts 93°
2026-04-18 07:57 48.56263 3.83775 31200 ft 384 kts 93°
2026-04-18 07:57 48.56174 3.91822 31201 ft 383 kts 93°
2026-04-18 07:58 48.56030 4.03881 31201 ft 382 kts 93°
2026-04-18 07:58 48.55726 4.07839 31201 ft 378 kts 106°
2026-04-18 07:59 48.55059 4.11660 31201 ft 377 kts 108°
2026-04-18 07:59 48.53798 4.19331 31203 ft 377 kts 107°
2026-04-18 08:00 48.52486 4.26986 31208 ft 377 kts 107°
2026-04-18 08:00 48.51197 4.34603 31201 ft 377 kts 107°
2026-04-18 08:01 48.49887 4.42261 31201 ft 377 kts 107°
2026-04-18 08:01 48.48575 4.49922 31201 ft 377 kts 107°
2026-04-18 08:02 48.47257 4.57574 31204 ft 377 kts 107°
2026-04-18 08:02 48.45934 4.65224 31207 ft 377 kts 107°
2026-04-18 08:03 48.44606 4.72866 31204 ft 377 kts 107°
2026-04-18 08:03 48.43274 4.80501 31206 ft 377 kts 107°
2026-04-18 08:04 48.41935 4.88136 31204 ft 377 kts 107°
2026-04-18 08:04 48.40594 4.95764 31207 ft 377 kts 107°
2026-04-18 08:05 48.39245 5.03394 31212 ft 377 kts 107°
2026-04-18 08:05 48.38121 5.09727 31211 ft 377 kts 107°
2026-04-18 08:06 48.36764 5.17346 31209 ft 377 kts 107°
2026-04-18 08:06 48.35401 5.24962 31209 ft 377 kts 107°
2026-04-18 08:07 48.34035 5.32571 31207 ft 377 kts 107°
2026-04-18 08:07 48.32664 5.40166 31206 ft 377 kts 107°
2026-04-18 08:08 48.31289 5.47767 31204 ft 376 kts 107°
2026-04-18 08:08 48.29907 5.55353 31205 ft 376 kts 107°
2026-04-18 08:09 48.28525 5.62929 31205 ft 376 kts 107°
2026-04-18 08:09 48.27135 5.70503 31206 ft 376 kts 107°
2026-04-18 08:10 48.25743 5.78064 31205 ft 376 kts 107°
2026-04-18 08:10 48.24343 5.85625 31203 ft 376 kts 107°
2026-04-18 08:11 48.22949 5.93138 31204 ft 371 kts 107°
2026-04-18 08:11 48.21566 6.00557 31205 ft 368 kts 107°
2026-04-18 08:12 48.20179 6.07965 31202 ft 370 kts 107°
2026-04-18 08:12 48.18783 6.15393 31206 ft 371 kts 107°
2026-04-18 08:13 48.17383 6.22815 30986 ft 378 kts 107°
2026-04-18 08:13 48.16656 6.26652 30676 ft 387 kts 107°
2026-04-18 08:13 48.15916 6.30557 30363 ft 393 kts 107°
2026-04-18 08:13 48.15161 6.34528 30010 ft 398 kts 107°
2026-04-18 08:14 48.14399 6.38533 29642 ft 401 kts 107°
2026-04-18 08:14 48.13629 6.42564 29282 ft 403 kts 107°
2026-04-18 08:14 48.12857 6.46609 28925 ft 404 kts 107°
2026-04-18 08:14 48.12081 6.50650 28574 ft 404 kts 107°
2026-04-18 08:15 48.11307 6.54682 28225 ft 403 kts 107°
2026-04-18 08:15 48.10532 6.58711 27878 ft 402 kts 107°
2026-04-18 08:15 48.09757 6.62731 27540 ft 401 kts 107°
2026-04-18 08:15 48.08985 6.66724 27202 ft 400 kts 107°
2026-04-18 08:16 48.08212 6.70715 26869 ft 398 kts 107°
2026-04-18 08:16 48.07442 6.74680 26540 ft 397 kts 107°
2026-04-18 08:16 48.06673 6.78633 26212 ft 395 kts 107°
2026-04-18 08:16 48.05905 6.82575 25893 ft 394 kts 106°
2026-04-18 08:17 48.05140 6.86493 25572 ft 392 kts 106°
2026-04-18 08:17 48.04375 6.90405 25254 ft 391 kts 107°
2026-04-18 08:17 48.03611 6.94300 24943 ft 390 kts 106°
2026-04-18 08:17 48.02847 6.98185 24631 ft 389 kts 106°
2026-04-18 08:18 48.02087 7.02049 24326 ft 387 kts 106°
2026-04-18 08:18 48.01330 7.05882 24201 ft 379 kts 106°
2026-04-18 08:18 48.00601 7.09573 24201 ft 372 kts 106°
2026-04-18 08:18 47.99873 7.13251 24201 ft 367 kts 106°
2026-04-18 08:19 47.99152 7.16885 24199 ft 363 kts 106°
2026-04-18 08:19 47.98435 7.20493 24195 ft 361 kts 106°
2026-04-18 08:19 47.97722 7.24074 24195 ft 359 kts 106°
2026-04-18 08:19 47.97010 7.27640 24193 ft 358 kts 106°
2026-04-18 08:20 47.96299 7.31195 24190 ft 357 kts 106°
2026-04-18 08:20 47.95589 7.34746 24190 ft 357 kts 106°
2026-04-18 08:20 47.94879 7.38285 24190 ft 356 kts 106°
2026-04-18 08:20 47.94169 7.41821 24190 ft 356 kts 106°
2026-04-18 08:21 47.93455 7.45362 24191 ft 356 kts 106°
2026-04-18 08:21 47.92744 7.48892 24191 ft 356 kts 106°
2026-04-18 08:21 47.92031 7.52422 24194 ft 355 kts 106°
2026-04-18 08:21 47.91318 7.55946 24195 ft 355 kts 107°
2026-04-18 08:22 47.90562 7.59449 24196 ft 354 kts 111°
2026-04-18 08:22 47.89249 7.62514 24193 ft 352 kts 134°
2026-04-18 08:22 47.87284 7.64612 24205 ft 347 kts 158°
2026-04-18 08:22 47.84979 7.65466 24205 ft 340 kts 180°
2026-04-18 08:23 47.82676 7.65021 24205 ft 331 kts 201°
2026-04-18 08:23 47.80654 7.63498 24206 ft 324 kts 220°
2026-04-18 08:23 47.79117 7.61123 24202 ft 317 kts 239°
2026-04-18 08:23 47.78199 7.58193 24203 ft 312 kts 257°
2026-04-18 08:24 47.77963 7.55024 24204 ft 308 kts 274°
2026-04-18 08:24 47.78390 7.51921 24205 ft 306 kts 287°
2026-04-18 08:24 47.79027 7.48903 24206 ft 306 kts 287°
2026-04-18 08:24 47.79645 7.45873 24206 ft 306 kts 287°
2026-04-18 08:25 47.80257 7.42842 24204 ft 306 kts 287°
2026-04-18 08:25 47.80871 7.39812 24205 ft 306 kts 287°
2026-04-18 08:25 47.81581 7.36841 24202 ft 305 kts 297°
2026-04-18 08:25 47.82883 7.34351 24201 ft 307 kts 314°
2026-04-18 08:26 47.84662 7.32568 24191 ft 312 kts 332°
2026-04-18 08:26 47.86771 7.31723 24188 ft 319 kts 350°
2026-04-18 08:26 47.88999 7.31973 24184 ft 327 kts
2026-04-18 08:26 47.91095 7.33376 24185 ft 336 kts 30°
2026-04-18 08:27 47.92773 7.35840 24185 ft 345 kts 51°
2026-04-18 08:27 47.93766 7.39060 24183 ft 351 kts 73°
2026-04-18 08:27 47.93921 7.42750 24185 ft 355 kts 96°
2026-04-18 08:27 47.93328 7.46317 24187 ft 355 kts 107°
2026-04-18 08:28 47.92582 7.49823 24186 ft 355 kts 108°
2026-04-18 08:28 47.91842 7.53288 24189 ft 355 kts 107°
2026-04-18 08:28 47.91133 7.56823 24193 ft 355 kts 106°
2026-04-18 08:28 47.90313 7.60285 24192 ft 354 kts 117°
2026-04-18 08:29 47.88807 7.63154 24195 ft 352 kts 140°
2026-04-18 08:29 47.86722 7.64965 24206 ft 346 kts 163°
2026-04-18 08:29 47.84381 7.65495 24202 ft 339 kts 186°
2026-04-18 08:29 47.82119 7.64745 24199 ft 330 kts 206°
2026-04-18 08:30 47.80201 7.62967 24198 ft 323 kts 225°
2026-04-18 08:30 47.78808 7.60400 24202 ft 317 kts 243°
2026-04-18 08:30 47.78065 7.57365 24200 ft 312 kts 261°
2026-04-18 08:30 47.78015 7.54176 24202 ft 309 kts 278°
2026-04-18 08:31 47.78562 7.51098 24205 ft 307 kts 288°
2026-04-18 08:31 47.79200 7.48065 24205 ft 307 kts 287°
2026-04-18 08:31 47.79817 7.45024 24203 ft 307 kts 287°
2026-04-18 08:31 47.80432 7.41980 24202 ft 307 kts 287°
2026-04-18 08:32 47.81048 7.38935 24204 ft 307 kts 287°
2026-04-18 08:32 47.81903 7.36053 24202 ft 306 kts 303°
2026-04-18 08:32 47.83361 7.33737 24198 ft 309 kts 319°
2026-04-18 08:32 47.85263 7.32210 24190 ft 315 kts 337°
2026-04-18 08:33 47.87438 7.31680 24190 ft 322 kts 356°
2026-04-18 08:33 47.89663 7.32279 24187 ft 330 kts 15°
2026-04-18 08:33 47.91663 7.34023 24184 ft 339 kts 36°
2026-04-18 08:33 47.93161 7.36769 24183 ft 347 kts 58°
2026-04-18 08:34 47.93914 7.40204 24184 ft 353 kts 80°
2026-04-18 08:34 47.93786 7.43855 24182 ft 355 kts 102°
2026-04-18 08:34 47.93103 7.47393 24183 ft 355 kts 107°
2026-04-18 08:34 47.92348 7.50901 24188 ft 355 kts 107°
2026-04-18 08:35 47.91612 7.54419 24189 ft 356 kts 106°
2026-04-18 08:35 47.90917 7.57907 24195 ft 355 kts 106°
2026-04-18 08:35 47.89930 7.61257 24193 ft 354 kts 124°
2026-04-18 08:35 47.88188 7.63861 24194 ft 350 kts 148°
2026-04-18 08:36 47.86013 7.65268 24200 ft 344 kts 170°
2026-04-18 08:36 47.83664 7.65385 24202 ft 336 kts 192°
2026-04-18 08:36 47.81482 7.64297 24200 ft 328 kts 212°
2026-04-18 08:36 47.79710 7.62247 24199 ft 321 kts 231°
2026-04-18 08:37 47.78509 7.59502 24200 ft 315 kts 249°
2026-04-18 08:37 47.77977 7.56381 24202 ft 311 kts 266°
2026-04-18 08:37 47.78140 7.53208 24200 ft 308 kts 284°
2026-04-18 08:37 47.78762 7.50167 24204 ft 307 kts 288°
2026-04-18 08:38 47.79391 7.47133 24205 ft 307 kts 287°
2026-04-18 08:38 47.80005 7.44085 24206 ft 307 kts 287°
2026-04-18 08:38 47.80621 7.41046 24207 ft 307 kts 287°
2026-04-18 08:38 47.81245 7.38009 24206 ft 306 kts 289°
2026-04-18 08:39 47.82298 7.35281 24201 ft 307 kts 308°
2026-04-18 08:39 47.83903 7.33174 24190 ft 311 kts 325°
2026-04-18 08:39 47.85907 7.31933 24187 ft 317 kts 343°
2026-04-18 08:39 47.88122 7.31738 24182 ft 324 kts
2026-04-18 08:40 47.90310 7.32692 24184 ft 333 kts 22°
2026-04-18 08:40 47.92186 7.34766 24184 ft 342 kts 42°
2026-04-18 08:40 47.93480 7.37764 24183 ft 349 kts 64°
2026-04-18 08:40 47.93970 7.41278 24181 ft 354 kts 86°
2026-04-18 08:41 47.93603 7.44907 24184 ft 355 kts 105°
2026-04-18 08:41 47.92884 7.48428 24188 ft 355 kts 107°
2026-04-18 08:41 47.92116 7.51986 24190 ft 355 kts 107°
2026-04-18 08:41 47.91402 7.55463 24190 ft 356 kts 106°
2026-04-18 08:42 47.90683 7.58989 24195 ft 354 kts 109°
2026-04-18 08:42 47.89470 7.62161 24190 ft 353 kts 131°
2026-04-18 08:42 47.87572 7.64413 24198 ft 349 kts 154°
2026-04-18 08:42 47.85286 7.65451 24197 ft 342 kts 177°
2026-04-18 08:43 47.82956 7.65164 24203 ft 334 kts 199°
2026-04-18 08:43 47.80879 7.63755 24201 ft 326 kts 218°
2026-04-18 08:43 47.79268 7.61455 24197 ft 319 kts 237°
2026-04-18 08:43 47.78268 7.58558 24200 ft 314 kts 255°
2026-04-18 08:44 47.77952 7.55387 24201 ft 310 kts 272°
2026-04-18 08:44 47.78317 7.52257 24203 ft 307 kts 287°
2026-04-18 08:44 47.78958 7.49228 24204 ft 307 kts 288°
2026-04-18 08:44 47.79582 7.46189 24204 ft 307 kts 287°
2026-04-18 08:45 47.80197 7.43142 24202 ft 307 kts 287°
2026-04-18 08:45 47.80812 7.40100 24205 ft 307 kts 287°
2026-04-18 08:45 47.81493 7.37101 24200 ft 306 kts 295°
2026-04-18 08:45 47.82748 7.34547 24199 ft 308 kts 313°
2026-04-18 08:46 47.84492 7.32687 24189 ft 312 kts 330°
2026-04-18 08:46 47.86586 7.31753 24188 ft 319 kts 348°
2026-04-18 08:46 47.88817 7.31909 24187 ft 327 kts
2026-04-18 08:46 47.90937 7.33220 24186 ft 336 kts 28°
2026-04-18 08:47 47.92661 7.35610 24180 ft 344 kts 49°
2026-04-18 08:47 47.93726 7.38835 24183 ft 351 kts 71°
2026-04-18 08:47 47.93942 7.42465 24184 ft 355 kts 94°
2026-04-18 08:47 47.93383 7.46049 24184 ft 355 kts 106°
2026-04-18 08:48 47.92639 7.49559 24186 ft 355 kts 108°
2026-04-18 08:48 47.91887 7.53069 24189 ft 356 kts 107°
2026-04-18 08:48 47.91176 7.56602 24190 ft 356 kts 106°
2026-04-18 08:48 47.90382 7.60079 24189 ft 354 kts 115°
2026-04-18 08:49 47.89498 7.62113 24191 ft 353 kts 131°
2026-04-18 08:49 47.87606 7.64389 24186 ft 349 kts 154°
2026-04-18 08:49 47.85322 7.65451 24196 ft 342 kts 176°
2026-04-18 08:49 47.82994 7.65187 24199 ft 334 kts 198°
2026-04-18 08:50 47.80911 7.63793 24199 ft 326 kts 218°
2026-04-18 08:50 47.79290 7.61504 24198 ft 319 kts 236°
2026-04-18 08:50 47.78279 7.58615 24199 ft 314 kts 254°
2026-04-18 08:50 47.77951 7.55443 24200 ft 310 kts 271°
2026-04-18 08:51 47.78306 7.52312 24201 ft 307 kts 287°
2026-04-18 08:51 47.78947 7.49284 24203 ft 307 kts 288°
2026-04-18 08:51 47.79573 7.46238 24205 ft 307 kts 287°
2026-04-18 08:51 47.80186 7.43197 24203 ft 307 kts 287°
2026-04-18 08:52 47.80801 7.40155 24203 ft 307 kts 287°
2026-04-18 08:52 47.81478 7.37150 24199 ft 306 kts 294°
2026-04-18 08:52 47.82720 7.34589 24199 ft 308 kts 312°
2026-04-18 08:52 47.84458 7.32712 24187 ft 312 kts 330°
2026-04-18 08:53 47.86544 7.31761 24188 ft 319 kts 348°
2026-04-18 08:53 47.88778 7.31896 24185 ft 327 kts
2026-04-18 08:53 47.90902 7.33186 24180 ft 336 kts 27°
2026-04-18 08:53 47.92638 7.35562 24183 ft 344 kts 49°
2026-04-18 08:54 47.93715 7.38775 24180 ft 351 kts 71°
2026-04-18 08:54 47.93946 7.42406 24181 ft 356 kts 94°
2026-04-18 08:54 47.93395 7.45993 24183 ft 355 kts 106°
2026-04-18 08:54 47.92661 7.49461 24184 ft 356 kts 108°
2026-04-18 08:55 47.91907 7.52974 24187 ft 356 kts 107°
2026-04-18 08:55 47.91194 7.56510 24190 ft 356 kts 106°
2026-04-18 08:55 47.90410 7.59992 24184 ft 354 kts 115°
2026-04-18 08:55 47.88969 7.62940 24190 ft 352 kts 138°
2026-04-18 08:56 47.86923 7.64862 24196 ft 347 kts 161°
2026-04-18 08:56 47.84585 7.65516 24197 ft 340 kts 184°
2026-04-18 08:56 47.82305 7.64865 24198 ft 331 kts 204°
2026-04-18 08:56 47.80347 7.63164 24199 ft 324 kts 223°
2026-04-18 08:57 47.78102 7.57651 24200 ft 312 kts 259°
2026-04-18 08:57 47.77990 7.54459 24199 ft 309 kts 277°
2026-04-18 08:57 47.78502 7.51373 24200 ft 307 kts 288°
2026-04-18 08:58 47.79357 7.48491 24201 ft 307 kts 303°
2026-04-18 08:58 47.80905 7.46319 24198 ft 310 kts 324°
2026-04-18 08:58 47.82868 7.44962 24198 ft 315 kts 340°
2026-04-18 08:58 47.85062 7.44600 24198 ft 322 kts 359°
2026-04-18 08:59 47.87272 7.45345 24188 ft 331 kts 18°
2026-04-18 08:59 47.89229 7.47201 24186 ft 340 kts 38°
2026-04-18 08:59 47.90669 7.50028 24184 ft 348 kts 59°
2026-04-18 08:59 47.91354 7.53497 24184 ft 353 kts 82°
2026-04-18 09:00 47.91157 7.57142 24186 ft 356 kts 104°
2026-04-18 09:00 47.90336 7.60612 24190 ft 355 kts 111°
2026-04-18 09:00 47.89426 7.64040 24110 ft 358 kts 111°
2026-04-18 09:00 47.88511 7.67551 23693 ft 369 kts 110°
2026-04-18 09:01 47.87610 7.71168 23178 ft 372 kts 110°
2026-04-18 09:01 47.86712 7.74767 22688 ft 370 kts 110°
2026-04-18 09:01 47.85796 7.78340 22195 ft 368 kts 110°
2026-04-18 09:01 47.84901 7.81837 21721 ft 366 kts 110°
2026-04-18 09:02 47.84004 7.85370 21237 ft 364 kts 110°
2026-04-18 09:02 47.83112 7.88879 20765 ft 361 kts 110°
2026-04-18 09:02 47.82221 7.92365 20283 ft 359 kts 110°
2026-04-18 09:02 47.81335 7.95826 19805 ft 356 kts 110°
2026-04-18 09:03 47.80457 7.99254 19348 ft 353 kts 110°
2026-04-18 09:03 47.79585 8.02653 18881 ft 350 kts 110°
2026-04-18 09:03 47.78719 8.06014 18414 ft 347 kts 110°
2026-04-18 09:03 47.77842 8.09320 17928 ft 340 kts 114°
2026-04-18 09:04 47.76671 8.11855 17347 ft 276 kts 134°
2026-04-18 09:04 47.75346 8.13553 16357 ft 236 kts 143°
2026-04-18 09:04 47.74151 8.15104 15282 ft 223 kts 137°
2026-04-18 09:04 47.73094 8.16757 14235 ft 224 kts 133°
2026-04-18 09:05 47.72006 8.18501 13124 ft 234 kts 134°
2026-04-18 09:05 47.70874 8.20256 11998 ft 235 kts 135°
2026-04-18 09:05 47.69750 8.21987 10933 ft 232 kts 135°
2026-04-18 09:05 47.68740 8.23516 9966 ft 225 kts 141°
2026-04-18 09:06 47.67353 8.24457 8843 ft 219 kts 173°
2026-04-18 09:06 47.65876 8.24198 7642 ft 214 kts 201°
2026-04-18 09:06 47.64441 8.23749 6433 ft 213 kts 177°
2026-04-18 09:06 47.63068 8.24516 5193 ft 215 kts 142°
2026-04-18 09:07 47.62120 8.26185 4254 ft 205 kts 123°
2026-04-18 09:07 47.61424 8.27824 4206 ft 181 kts 117°
2026-04-18 09:07 47.60949 8.29721 4216 ft 216 kts 108°
2026-04-18 09:07 47.60400 8.31956 4159 ft 244 kts 112°
2026-04-18 09:08 47.59685 8.34348 4039 ft 262 kts 114°
2026-04-18 09:08 47.58937 8.36836 4009 ft 265 kts 113°
2026-04-18 09:08 47.58204 8.39332 4014 ft 263 kts 117°
2026-04-18 09:08 47.57090 8.41499 3795 ft 264 kts 135°
2026-04-18 09:09 47.55782 8.43246 3480 ft 238 kts 139°
2026-04-18 09:09 47.54627 8.44810 3167 ft 212 kts 136°
2026-04-18 09:09 47.53613 8.46231 2906 ft 188 kts 138°
2026-04-18 09:09 47.52690 8.47469 2667 ft 171 kts 137°
2026-04-18 09:10 47.51938 8.48506 2458 ft 130 kts 137°
2026-04-18 09:10 47.51286 8.49392 2286 ft 137 kts 137°
2026-04-18 09:10 47.50568 8.50387 2092 ft 145 kts 137°
2026-04-18 09:10 47.49823 8.51395 1869 ft 139 kts 137°
2026-04-18 09:11 47.49155 8.52301 1676 ft 121 kts 137°
2026-04-18 09:11 47.48541 8.53143 1513 ft 120 kts 137°
2026-04-18 09:11 47.47944 8.53964 1412 ft 107 kts 137°
2026-04-18 09:11 47.47460 8.54634 1389 ft 82 kts 137°
2026-04-18 09:12 47.47102 8.55126 1384 ft 60 kts 137°
2026-04-18 09:12 47.46833 8.55492 1387 ft 41 kts 141°
2026-04-18 09:12 47.46681 8.55635 1389 ft 24 kts 158°
2026-04-18 09:12 47.46530 8.55700 1389 ft 22 kts 168°
2026-04-18 09:13 47.46396 8.55748 1396 ft 15 kts 158°
2026-04-18 09:13 47.46322 8.55839 1396 ft 10 kts 136°
2026-04-18 09:13 47.46319 8.55844 1396 ft 0 kts 135°
2026-04-18 09:14 47.46290 8.55885 1402 ft 18 kts 134°
2026-04-18 09:14 47.46209 8.55993 1405 ft 13 kts 152°
2026-04-18 09:14 47.46123 8.55993 1402 ft 12 kts 180°
2026-04-18 09:15 47.46040 8.55982 1403 ft 13 kts 187°
2026-04-18 09:15 47.45953 8.55955 1404 ft 13 kts 223°
2026-04-18 09:15 47.45942 8.55824 1400 ft 14 kts 277°
2026-04-18 09:15 47.45949 8.55736 1399 ft 9 kts 274°
2026-04-18 09:16 47.45956 8.55628 1397 ft 12 kts 275°
2026-04-18 09:16 47.45965 8.55496 1398 ft 14 kts 276°
2026-04-18 09:16 47.45979 8.55291 1396 ft 25 kts 276°
2026-04-18 09:16 47.45989 8.55083 1389 ft 15 kts 270°
2026-04-18 09:17 47.45947 8.55000 1389 ft 10 kts 176°
2026-04-18 09:17 47.45883 8.55036 1390 ft 10 kts 154°
2026-04-18 09:17 47.45810 8.55089 1390 ft 17 kts 156°
2026-04-18 09:17 47.45693 8.55169 1393 ft 9 kts 158°
2026-04-18 09:18 47.45627 8.55166 1392 ft 14 kts 195°
2026-04-18 09:18 47.45481 8.55097 1392 ft 29 kts 201°
2026-04-18 09:18 47.45283 8.54995 1387 ft 30 kts 198°
2026-04-18 09:18 47.45183 8.54936 1386 ft 9 kts 222°
2026-04-18 09:19 47.45124 8.54899 1388 ft 7 kts 195°
2026-04-18 09:19 47.45087 8.54882 1387 ft 6 kts 199°
2026-04-18 09:19 47.45048 8.54859 1388 ft 6 kts 202°
2026-04-18 09:19 47.45023 8.54852 1388 ft 2 kts 144°
2026-04-18 09:20 47.45014 8.54896 1389 ft 2 kts 85°
2026-04-18 09:20 47.45027 8.54914 1389 ft 3 kts 16°
2026-04-18 09:20 47.45031 8.54913 1387 ft 1 kts 330°
2026-04-18 09:20 47.45035 8.54902 1388 ft 0 kts 286°
2026-04-18 09:21 47.45036 8.54900 1388 ft 0 kts 287°